Regional Weather Roundup
Issued by NWS San Diego, CA

Home | Current Version | Previous Version | Text Only | Print | Product List | Glossary On
Versions: 1 2 3 4 5 6 7 8 9 10 11 12 13 14 15 16 17 18 19 20 21 22 23 24 25 26 27 28 29 30 31 32 33 34 35 36 37 38 39 40 41 42 43 44 45 46 47 48 49 50
105
ASUS46 KSGX 272311
RWRSGX

SAN DIEGO HOURLY WEATHER ROUNDUP
NATIONAL WEATHER SERVICE SAN DIEGO CA
400 PM PDT WED JUL 27 2016

NOTE: "FAIR" INDICATES FEW OR NO CLOUDS BELOW 12,000 FEET WITH NO
SIGNIFICANT WEATHER AND/OR OBSTRUCTIONS TO VISIBILITY.

CAZ042-043-060-061-PZZ750-775-280000-

GREATER SAN DIEGO AREA

CITY           SKY/WX    TMP DP  RH WIND       PRES   REMARKS
LINDBERGH FLD  MOSUNNY   79  64  60 NW9       29.91F
POINT LOMA       N/A     81  67  63 W8          N/A
NATIONAL CITY    N/A     80  70  70 S7        29.91F
CHULA VISTA      N/A     80  70  71 W8        29.83F
IMPERIAL BEACH MOSUNNY   79  66  64 W10       29.91F
BROWN FIELD    SUNNY     85  60  42 W8        29.91F
MIRAMAR MCAS   MOSUNNY   88  54  31 W7        29.90F
MONTGOMERY FLD SUNNY     85  64  49 SW12      29.90F

$$

NORTH SAN DIEGO COUNTY

CITY           SKY/WX    TMP DP  RH WIND       PRES   REMARKS
CAMP PENDLETON MOSUNNY   83  64  52 SW12      29.88F
OCEANSIDE AP   SUNNY     80  67  64 W13       29.88F
OCEANSIDE HBR    N/A     76  71  84 SW5       29.92F
VISTA            N/A     85  62  46 SW5       29.86F
CARLSBAD       SUNNY     78  67  68 SW9       29.89F
DEL MAR          N/A     78  71  78 W2        29.93S
LA JOLLA SCRIP   N/A     74  70  88 W3        29.90S
FALLBROOK        N/A     89  60  37 S5        29.87S
ESCONDIDO        N/A     90  57  32 NW7       29.89F
SAN MARCOS       N/A     84  61  45 NW9       29.91
POWAY            N/A     94  57  28 SW7       29.88F

$$

EAST SAN DIEGO COUNTY

CITY           SKY/WX    TMP DP  RH WIND       PRES   REMARKS
RAMONA         SUNNY     93  51  23 W10G18    29.93F
SANTEE LAKES     N/A     92  59  33 S9        29.86F
LA MESA          N/A     89  57  33 SW6       29.82F
JAMUL            N/A     92  61  35 CALM      29.87F
DESCANSO N       N/A     91  56  29 CALM      29.73F
MT. LAGUNA OBS   N/A     83  48  29 W5        29.78F
CAMPO            N/A     95  56  26 W13G23    29.94S

$$

ORANGE COUNTY AND THE LOS ANGELES BASIN

CITY           SKY/WX    TMP DP  RH WIND       PRES   REMARKS
JOHN WAYNE AP  MOSUNNY   82  64  54 SW8       29.89S
LAGUNA BEACH     N/A     82  71  70 S7        29.84F
LAKE FOREST FR   N/A     94  48  20 NW6       29.75F
HUNTINGTON BCH   N/A     79  69  71 SW6       29.91F
LOS ALAMITOS   MOSUNNY   86  54  34 S10       29.88F
FULLERTON      SUNNY     89  54  30 S10       29.87S
LONG BEACH     SUNNY     89  59  36 NW9       29.87F
L.A. AP        MOSUNNY   77  66  68 W12       29.90F
L.A. DOWNTOWN  SUNNY     82  55  39 VRB5      29.88F

$$

THE INLAND EMPIRE

CITY           SKY/WX    TMP DP  RH WIND       PRES   REMARKS
CORONA         SUNNY     96  49  20 W17G23    29.86F
CHINO          MOSUNNY   98  55  23 SW16      29.87F HX  96
ONTARIO        MOSUNNY   97  56  25 SW18G26   29.88F HX  95
SAN BERNARDINO MOSUNNY  102  46  15 SW10      29.88F HX  98
RIVERSIDE AP   SUNNY     99  45  15 W13       29.87F HX  95
MORENO VALLEY    N/A    101  52  19 SW6       28.04F HX  99
MARCH ARB      SUNNY     98  49  19 NW17      29.90F
HORSETHIEF CYN   N/A    101  45  14 E9        29.85F HX  97
PERRIS           N/A     98  49  18 W5        29.89F HX  95
HEMET EAST       N/A     99  51  19 SW5       29.72F HX  96
FRENCH VALLEY  FAIR      95  54  24 S14       29.91S
TEMECULA         N/A     93  55  28 SW10      29.82F

$$

SAN BERNARDINO AND RIVERSIDE COUNTY MOUNTAINS

CITY           SKY/WX    TMP DP  RH WIND       PRES   REMARKS
BIG BEAR AP    PTSUNNY   77  50  38 W5        30.31F
PINE COVE        N/A     83  47  28 NW2       29.84F

$$

SOUTHERN DESERT INCLUDING THE COACHELLA VALLEY

CITY           SKY/WX    TMP DP  RH WIND       PRES   REMARKS
PALM SPRINGS   MOSUNNY  113  50  12 W14       29.72F HX 110
THOUSAND PALMS   N/A    115  59  16 E3        29.68F HX 116
PALM DESERT      N/A    115  64  19 S2        29.43S HX 120
THERMAL        SUNNY    113  52  13 E7        29.65F HX 110
BLYTHE         SUNNY    113  56  15 S9G17     29.69F HX 112
IMPERIAL AP    PTSUNNY  116  62  17 VRB7      29.67F HX 119
EL CENTRO NAS  PTSUNNY  113  49  12 VRB7      29.69F HX 109
YUMA AZ        PTSUNNY  112  60  18 S14       29.70  HX 113
MEXICALI       PTSUNNY  111  59  18 S7        29.70F HX 112

$$

UPPER DESERT

CITY           SKY/WX    TMP DP  RH WIND       PRES   REMARKS
VICTORVILLE AP SUNNY    106  45  12 S14       29.93S HX 101
HESPERIA         N/A     99  53  21 W13       29.85F HX  96
PALMDALE       SUNNY    102  46  15 SW23G31   29.92F HX  98
LANCASTER      MOSUNNY  104  44  13 SW23G33   29.91F HX  99
EDWARDS AFB    MOSUNNY  108  39   9 SW23G30   29.87F HX 102
DAGGETT        MOSUNNY  111  42  10 CALM      29.82F HX 105
29 PALMS N     MOSUNNY  108  45  12 VRB5      29.89F HX 103
NEEDLES        CLOUDY   118  52  11 SW15G21   29.71F HX 115

$$

REGIONAL REPORTS

CITY           SKY/WX    TMP DP  RH WIND       PRES   REMARKS
SANTA BARBARA  SUNNY     74  63  68 W10       29.89F
SANDBERG       SUNNY     97  41  14 S13       30.14F
LAS VEGAS NV   MOSUNNY  113  39   8 N5        29.78F HX 106
PHOENIX AZ     MOSUNNY  111  57  17 W13       29.71F HX 111
TIJUANA        MOSUNNY   84  50  30 W9        29.93
ENSENADA NW      N/A     74  32  21 W9        29.87F

$$

OFFSHORE ISLANDS

CITY           SKY/WX    TMP DP  RH WIND       PRES   REMARKS
CATALINA ARPT  SUNNY     83  22  10 W8        29.97F
SAN CLEMENTE I MOSUNNY   70  61  73 SW12      29.93F
SAN NICOLAS IS MOSUNNY   76  61  59 E9        29.92F

$$

MARINE AND OFFSHORE BUOY REPORTS

STATION/POSITION SKY/WX   TEMP    WIND        PRES    SWELL
                          AIR SEA DIR/SP/G            HT/PER/DIR
                          (F)     (DEG/KT/KT) (MB)    (FT/S/D)
TANNER BANKS               62 65  290/ 10/ 12 1013.3F   5/310/11
S CLEMENTE BASIN           67 71  280/ 12/ 14 1012.4F   3/220/10
SAN NICOLAS IS.               64                N/A     3/290/11
SO. S. ROSA ISLA           62 67  290/ 12/ 16 1013.1F   5/310/11
W. S. BARBARA CH           60 64  300/ 14/ 16 1013.0F   3/290/10
M. S. BARBARA CH                  260/ 12/ 14 1012.8F
S. MONICA BASIN            69 73  270/ 10/ 12 1012.1F
S PEDRO CHANNEL               72                N/A     2/170/13
OCEANSIDE OFFSHR              77                N/A     2/190/12
TORREY PINES OTR              77                N/A     2/200/11
LA JOLLA 1                    74                N/A
SAN DIEGO BAY                 79                N/A
POINT LOMA SOUTH              73                N/A     2/180/13

$$





USA.gov is the U.S. government's official web portal to all federal, state and local government web resources and services.